Wind_Speed
24 25 26 26 26 25 25 24 23 22 21 21 18 17 17 17 17 12 17 14 19 15 14 20 24 23 20 16 18 13 12 9 2 15 17 11 14 10 12 13 9 4 21 27 30
25 27 28 28 28 28 27 26 25 24 24 22 19 17 14 14 16 26 31 21 25 19 19 26 24 21 17 19 13 15 2 7 1 11 12 12 16 10 12 13 12 18 27 32 34
28 29 30 31 32 30 30 30 28 27 23 20 18 16 11 9 15 14 8 40 26 25 23 24 23 20 21 16 17 16 7 25 6 7 3 15 16 10 16 12 14 21 26 28 35
30 32 33 34 35 34 34 35 30 27 23 21 19 15 7 8 6 8 6 17 33 26 26 24 22 23 21 22 17 17 11 20 7 3 3 8 15 13 8 16 17 20 26 27 26
31 33 35 36 37 36 39 34 32 29 26 22 17 11 5 10 16 5 4 6 22 30 31 24 25 24 23 19 15 19 17 10 4 5 5 4 3 13 12 15 19 21 25 26 23
33 35 36 37 38 39 41 31 34 28 20 14 13 8 9 19 11 16 9 14 20 32 31 28 21 24 22 21 19 15 17 10 11 11 9 11 7 8 14 15 20 23 24 25 24
35 36 38 41 42 44 38 32 32 17 16 12 14 14 15 20 6 9 17 21 21 32 25 30 27 19 21 18 14 20 12 17 15 14 9 9 10 14 15 16 21 22 22 24 24
36 37 39 41 42 46 28 30 18 14 17 6 15 13 9 6 23 15 16 22 23 27 28 26 27 22 23 16 7 19 21 17 20 18 16 12 16 18 17 21 21 22 21 22 25
36 38 39 40 41 37 28 22 10 12 6 13 11 15 11 5 17 24 21 23 26 25 24 23 23 17 23 18 16 18 18 22 20 23 17 15 15 14 18 23 21 21 21 21 22
38 39 39 41 39 28 29 18 10 5 3 7 9 8 10 11 16 22 26 23 23 21 19 19 16 17 20 19 19 22 23 23 23 15 19 18 19 16 19 18 21 21 21 21 23
38 39 39 39 30 27 29 18 4 7 14 15 9 16 4 8 6 20 28 22 22 23 21 25 20 27 30 28 23 21 21 23 24 14 21 18 20 17 14 14 19 21 21 23 23
38 40 42 35 15 20 20 13 9 10 16 22 30 28 31 6 12 18 30 21 24 27 26 20 28 27 26 28 27 27 24 23 20 14 16 15 15 14 15 17 18 21 22 23 22
37 38 38 30 9 16 8 19 17 15 9 18 27 26 24 24 15 24 31 28 31 30 32 29 21 28 27 26 28 28 27 20 19 19 15 15 16 16 12 15 18 19 21 22 25
36 37 30 28 6 18 12 21 18 12 7 9 9 8 26 20 19 26 35 32 19 33 31 29 28 28 28 29 27 28 26 23 21 20 18 20 16 21 17 18 19 20 21 22 23
36 35 19 12 13 11 21 23 17 7 7 12 9 6 12 25 9 30 36 35 26 25 30 31 25 22 30 27 28 26 21 25 23 19 19 23 17 17 27 25 24 22 23 22 24
36 27 15 7 13 18 23 22 8 7 10 5 6 8 12 25 27 24 29 33 30 26 28 29 22 24 23 25 24 22 19 21 24 20 21 25 21 19 17 19 24 24 21 22 22
37 18 10 11 13 22 20 12 8 10 1 14 15 16 12 16 24 19 31 32 30 30 30 28 32 24 22 23 25 20 21 13 17 18 20 25 24 21 20 21 20 21 23 21 21
37 13 10 9 19 18 16 11 13 21 15 22 21 24 21 21 19 27 27 27 35 30 19 22 24 34 21 28 25 27 26 15 23 19 18 25 28 25 25 15 15 21 23 22 21
29 11 6 16 17 14 9 10 11 15 17 20 27 22 15 20 9 24 27 28 31 34 31 25 31 30 34 25 28 23 27 27 23 23 16 21 29 25 20 27 18 13 22 20 22
24 18 2 20 16 12 9 13 15 15 19 18 20 17 24 23 8 17 27 24 27 35 31 29 19 32 30 25 29 29 23 23 17 23 19 18 17 18 23 17 25 24 18 22 21
16 7 12 21 15 8 8 9 15 14 15 15 21 24 18 21 24 20 18 4 9 12 26 33 26 15 26 29 27 25 22 26 21 18 15 12 12 17 20 22 20 21 25 22 20
11 7 16 19 11 1 8 10 9 14 9 15 16 23 19 18 17 17 18 10 10 14 16 35 14 20 30 28 26 26 29 27 17 24 18 14 3 9 18 15 19 20 19 23 21
9 10 3 13 7 9 10 12 6 12 11 6 9 14 20 19 8 15 8 7 11 11 10 2 16 17 23 24 28 31 30 26 27 19 21 16 7 8 5 4 15 17 16 15 17
6 6 7 8 7 11 12 17 14 7 9 9 6 9 17 17 15 11 10 9 6 8 14 9 17 23 19 25 23 28 30 30 25 20 18 20 14 11 10 10 6 7 8 9 4
5 5 6 7 10 12 12 14 17 15 5 15 2 9 8 8 17 11 13 13 12 3 10 7 16 20 26 18 13 30 29 30 31 24 25 16 19 18 16 13 12 13 10 7 9
5 4 6 13 10 12 12 13 13 11 13 16 9 8 10 11 10 16 15 11 8 12 10 11 12 19 23 24 6 13 20 31 30 28 23 24 15 17 18 9 9 9 8 6 6
2 9 5 7 12 9 12 12 15 15 13 9 13 15 13 8 10 13 15 18 16 15 12 11 9 11 16 21 10 18 21 18 25 24 25 22 20 14 10 9 6 6 6 8 7
Wind_Direction
358 355 354 351 347 344 340 336 332 327 323 319 316 315 317 314 304 265 245 231 222 226 173 180 193 200 206 199 238 237 263 286 213 10 118 140 111 67 89 129 131 78 135 139 151
359 358 355 352 349 344 340 334 328 322 318 311 308 308 316 322 294 266 246 234 225 199 192 185 194 196 208 221 216 239 242 282 82 175 119 122 110 126 135 147 117 116 120 145 158
0 358 355 354 351 345 338 333 325 319 314 309 304 299 311 322 278 256 236 225 212 198 206 195 197 200 217 224 219 233 199 248 95 17 241 134 125 148 127 161 145 134 147 157 158
358 355 354 352 349 344 339 334 326 319 308 302 295 294 295 275 259 79 97 202 211 199 210 198 205 203 218 218 222 244 244 256 105 113 333 125 141 125 179 138 141 141 157 162 169
356 354 352 349 347 344 340 332 328 318 309 299 280 269 268 222 248 233 235 167 190 195 208 200 207 205 216 223 217 228 265 217 236 211 213 347 133 176 132 137 140 147 162 170 173
356 354 352 347 345 342 337 330 325 320 306 294 264 220 228 247 254 220 201 172 184 194 207 203 211 211 223 231 215 216 247 217 230 212 197 212 176 212 141 155 147 157 168 175 179
356 354 351 346 345 341 336 331 325 320 310 275 230 193 233 237 213 216 208 198 197 197 205 207 214 209 227 235 228 244 236 227 240 237 224 222 215 206 154 164 158 167 171 177 184
356 354 349 346 343 339 333 333 327 329 321 257 181 195 251 243 239 230 208 203 206 204 214 207 213 221 226 247 227 221 235 230 216 210 218 218 212 197 173 166 172 172 174 177 185
355 353 349 345 343 341 336 329 321 348 331 146 159 220 255 178 219 216 210 202 199 201 214 204 213 222 220 238 221 211 222 221 225 204 214 202 246 163 177 170 179 179 179 181 183
354 351 349 345 344 343 337 324 267 286 134 210 266 209 242 226 210 203 202 202 193 192 202 209 212 213 221 213 220 214 214 211 224 181 217 192 236 173 174 185 184 182 180 185 185
353 349 348 346 347 357 340 320 274 199 241 258 196 248 332 193 167 189 184 191 195 196 197 202 203 210 213 217 227 236 214 235 202 184 197 223 203 224 168 179 191 181 185 189 190
352 347 345 346 355 2 14 31 20 306 293 272 258 257 257 233 201 192 181 190 192 197 199 192 217 215 217 215 224 234 243 221 228 211 211 218 240 242 179 183 194 184 190 190 188
350 347 341 343 333 352 359 8 335 321 269 283 237 229 218 228 227 196 191 201 194 195 200 203 211 217 214 217 214 225 229 231 234 219 206 234 245 235 203 179 194 192 194 192 189
349 346 343 342 304 340 1 338 332 320 279 252 198 222 212 202 231 237 192 199 192 205 205 221 219 195 215 217 216 222 221 233 235 235 221 208 234 213 226 186 195 199 193 195 194
347 345 347 340 315 337 335 326 324 265 278 112 124 107 192 195 158 200 188 204 206 206 208 209 216 204 208 212 215 228 222 220 239 247 251 244 228 241 198 206 191 200 195 200 189
344 343 340 351 294 337 327 319 283 235 240 143 117 192 191 206 243 171 189 210 221 213 211 226 208 213 213 214 214 219 231 232 218 231 236 233 236 232 236 214 189 195 204 191 197
340 340 318 315 330 327 327 296 250 242 334 17 355 328 286 211 222 216 188 198 206 214 215 213 227 211 225 210 209 205 210 207 221 217 231 224 233 235 230 223 204 206 194 191 190
338 327 298 305 330 325 312 279 260 276 15 349 329 305 278 269 217 220 194 203 212 213 212 211 213 221 196 216 201 203 212 217 213 217 227 228 228 226 234 251 230 204 199 191 188
342 322 272 341 328 318 289 279 306 359 348 334 323 303 255 229 260 209 212 213 206 218 219 204 224 196 217 211 212 192 218 219 236 217 238 215 220 240 232 219 215 227 202 198 182
325 303 249 341 324 287 271 276 340 353 334 320 300 295 329 343 253 252 215 222 222 210 233 244 220 225 198 205 216 230 205 215 235 245 230 231 228 210 210 221 212 207 213 205 192
303 304 20 338 295 271 296 352 328 327 311 317 306 297 302 311 316 286 247 74 359 279 235 236 246 242 207 202 201 206 218 212 228 233 242 234 227 227 199 207 215 213 208 213 201
304 317 7 332 293 351 335 346 297 294 318 319 304 286 276 298 295 294 312 50 357 305 281 214 244 235 209 198 211 211 216 201 220 220 238 260 200 12 195 193 191 211 210 210 196
321 301 158 331 1 330 341 306 294 303 330 322 304 340 314 296 302 329 302 358 343 317 1 262 223 222 239 190 201 219 207 220 211 235 215 229 212 100 73 197 186 200 201 207 193
302 316 346 300 353 330 342 303 314 328 316 311 345 333 338 304 279 276 303 315 327 337 325 298 250 227 218 198 194 208 215 213 217 218 223 209 217 138 104 131 151 181 184 177 181
303 330 348 304 332 331 303 283 292 315 334 303 156 342 325 304 314 359 339 293 280 59 306 256 242 241 250 250 212 204 214 214 216 219 223 207 209 162 143 140 130 141 122 115 146
310 340 322 297 296 301 295 307 307 313 324 309 307 317 316 291 285 302 297 339 327 343 338 304 264 251 252 250 211 261 240 216 217 218 225 233 220 200 147 155 175 175 183 224 262
26 302 296 285 303 311 297 315 308 303 308 317 313 308 302 317 306 293 258 273 286 290 304 304 274 238 237 236 231 241 235 238 225 210 224 220 231 238 163 161 217 238 223 216 236
Height
814 810 806 802 798 794 791 788 785 781 778 775 773 771 769 767 764 764 755 749 751 753 754 756 757 755 752 752 749 733 747 751 730 757 724 715 727 724 727 743 742 744 757 774 786
813 809 805 800 797 793 788 784 781 778 774 771 769 768 767 764 762 751 742 743 746 749 752 748 747 747 746 744 736 739 751 764 716 713 727 713 720 731 737 744 750 747 762 779 785
813 808 804 799 794 790 785 781 777 773 769 767 765 764 764 763 756 726 725 731 739 744 745 744 742 742 744 733 732 728 753 748 714 711 704 712 722 722 735 748 747 756 765 774 780
812 807 802 797 792 786 781 776 771 768 764 762 761 761 762 764 748 722 725 728 734 742 742 739 737 742 741 739 724 739 719 718 709 712 708 712 705 726 726 731 736 748 762 770 774
812 807 801 795 789 783 776 770 766 762 759 756 756 758 761 750 731 726 727 727 733 738 734 732 734 733 739 726 724 731 723 714 712 713 712 710 715 734 724 724 734 748 760 768 772
810 805 799 792 786 779 772 765 759 755 752 751 752 755 756 744 719 721 725 728 729 732 729 726 726 725 728 721 725 717 718 713 713 712 711 722 719 721 718 723 735 747 756 763 769
809 803 796 789 782 774 767 761 754 750 747 745 747 750 744 723 716 718 721 724 725 726 722 722 722 723 718 724 711 713 728 721 717 713 715 712 728 727 711 723 736 745 751 758 765
808 801 794 786 778 770 763 758 751 748 743 740 743 749 727 710 714 716 716 719 720 723 720 720 721 719 719 711 720 729 726 738 714 712 710 717 735 712 706 722 735 740 746 753 759
807 800 793 785 776 766 760 755 750 747 742 741 745 742 717 705 708 708 711 711 714 717 718 717 718 720 722 731 735 725 739 734 720 701 707 717 726 708 701 711 727 735 742 748 755
804 797 790 782 774 766 757 752 749 748 747 745 740 741 710 697 695 700 705 707 707 712 716 716 719 730 722 727 743 732 731 714 721 703 704 715 717 705 696 705 718 728 734 742 748
804 796 789 780 772 765 755 746 744 739 738 719 709 703 688 690 693 696 699 702 704 709 721 714 727 724 719 714 713 707 710 712 697 691 705 711 709 703 695 702 712 720 727 734 740
803 794 786 779 773 768 763 759 767 768 743 720 706 703 696 692 693 690 695 699 701 711 710 719 718 707 707 708 712 713 709 706 694 687 702 704 709 693 690 699 705 712 719 726 733
803 795 785 779 773 768 765 768 766 762 745 698 681 683 685 690 687 680 685 686 694 704 701 702 697 699 701 704 713 711 711 707 706 693 695 707 715 701 689 691 696 700 706 714 721
803 795 786 776 774 770 763 767 764 762 742 678 669 663 669 678 681 667 673 678 685 692 691 694 680 691 699 703 700 713 696 701 705 707 723 699 738 709 695 697 698 697 700 705 711
802 795 787 781 779 769 771 765 762 759 731 653 666 661 657 668 646 661 661 671 675 680 685 685 681 686 696 691 689 701 687 703 707 711 712 705 717 696 682 694 693 691 690 694 700
801 794 789 782 774 772 768 764 759 752 721 663 660 668 668 666 655 642 658 664 665 673 670 670 659 666 674 676 679 683 696 697 703 712 731 711 711 702 685 679 678 677 680 684 690
798 792 788 785 777 771 767 758 751 738 664 695 693 676 664 659 664 646 663 672 671 688 681 673 665 660 660 679 675 688 704 729 733 722 724 696 707 694 667 661 662 669 670 674 682
795 790 785 780 775 770 765 755 755 714 719 717 715 702 694 666 648 649 656 664 661 659 666 678 687 659 652 663 678 686 690 705 733 722 713 690 695 681 657 648 645 651 655 663 671
794 783 780 778 773 769 760 750 732 737 738 737 719 687 668 655 654 647 651 653 650 650 665 660 664 632 643 651 658 676 685 668 683 671 684 674 670 656 644 650 653 653 653 655 662
798 779 775 775 771 764 753 748 740 744 747 743 741 711 709 685 666 657 649 639 642 639 637 639 658 634 640 645 649 652 658 693 679 703 700 672 667 671 659 656 649 655 655 652 651
791 773 774 774 767 753 746 747 754 752 749 748 741 728 725 727 709 669 649 651 649 641 635 638 636 636 629 643 654 660 661 667 667 668 686 692 670 629 637 642 650 645 646 647 647
790 776 775 774 760 749 752 761 764 752 747 748 742 734 727 726 724 699 671 664 674 664 654 628 637 652 628 624 630 638 652 655 676 684 666 660 661 617 612 623 634 642 639 638 640
791 776 771 772 768 761 756 757 754 751 749 751 753 752 744 738 737 718 697 680 676 665 663 642 648 657 643 629 627 637 637 638 649 650 670 680 667 629 630 631 630 638 635 636 637
795 781 772 766 764 768 770 769 759 752 750 750 755 756 750 734 725 719 716 692 682 678 685 676 651 643 632 620 625 646 634 634 639 658 659 659 653 650 647 643 641 638 636 638 644
800 793 791 780 773 777 774 771 765 765 752 750 761 765 760 751 728 748 733 703 682 682 672 667 667 644 626 613 615 621 632 630 640 641 656 644 653 643 643 646 644 642 645 649 652
817 816 804 795 782 782 771 767 766 761 760 756 751 757 758 755 752 750 751 729 708 694 688 669 675 656 644 623 636 644 622 624 627 635 641 640 640 624 629 635 644 648 653 659 658
822 822 818 802 789 787 774 770 767 766 761 755 757 749 747 746 738 736 735 726 717 713 705 695 675 664 662 643 649 661 637 627 624 623 633 651 638 621 631 640 647 650 653 656 655